Location: Novokuznetsk
(53.7500°N, 87.1000°E)
Time: 23:23:31
(UTC+06:00)

ISS - Pass Details

Date: 21 May 2021
Orbit: 417 x 422 km, 51.6° (Epoch: 16 June)

Event Time Altitude Azimuth Distance (km) Brightness Sun altitude
Rises 23:06:11 0° 276° (W) 2,369 0.3 -14.7°
Reaches altitude 10° 23:08:20 10° 269° (W) 1,505 -0.8 -14.8°
Maximum altitude 23:11:33 43° 197° (SSW) 601 -3.4 -14.9°
Enters shadow 23:12:30 33° 153° (SSE) 726 -3.1 -14.9°
